sat.trackr.live / text

‹ back to catalog

STARLINK-36223

NORAD 67126 · 2025-299AA

PAYLOAD ACTIVE UNKNOWN

§ Identity

Operator
Country
US
Launch date
2025-12-15
Launch site
AFETR
Launch vehicle
Mass (kg)
RCS (m²)

Purposes: comms

External: N2YO · Heavens-Above · Gunter

§ Orbital elements

Epoch: 2026-09-19T09:42:03.302496Z

Period
94.27 min
Inclination
43.0009°
Eccentricity
0.0000924
Mean motion
15.27586612 rev/d
Perigee alt
482.4 km
Apogee alt
483.7 km
Semi-major
6,861.2 km
B*
5.5328e-4
RAAN
154.8787°
Arg perigee
288.4739°
Mean anomaly
71.6012°
Rev number
4,274

§ Raw data

STARLINK-362231 67126U 25299AA  26262.40420489  .00014997  00000+0  55328-3 0  99932 67126  43.0009 154.8787 0000924 288.4739  71.6012 15.27586612 42743

JSON: /api/v1/satellites/67126 · /tle

For live sub-satellite position, see the globe view (requires WebGL).

§ Visibility from observer

Set your observer location to see the next 7 days of passes ≥ 10°. The values pass through the URL so the page stays shareable.

No JS? Fill the form by hand. The geolocation button needs JavaScript.